Regional Weather Roundup
Issued by NWS

Home | Current Version | Previous Version | Text Only | Print | Product List | Glossary Off
Versions: 1 2 3 4 5 6 7 8 9 10 11 12 13 14 15 16 17 18 19 20 21 22 23 24 25 26 27 28 29 30 31 32 33 34 35 36 37 38 39 40 41 42 43 44 45 46 47 48 49 50

000
ASUS43 KLMK 202110
RWRKY
NATIONAL WEATHER SERVICE LOUISVILLE KY
400 PM EST MON NOV 20 2017

NOTE "FAIR" INDICATES FEW OR NO CLOUDS BELOW 12,000 FEET
WITH NO SIGNIFICANT WEATHER AND/OR OBSTRUCTIONS TO VISIBILITY.

KYZ001>023-026-027-061>063-070>075-202200-
WESTERN AND SOUTH CENTRAL KENTUCKY

CITY           SKY/WX    TMP DP  RH WIND       PRES   REMARKS
PADUCAH        SUNNY     54  23  30 SW13      30.06F
HENDERSON      SUNNY     52  27  38 S12       30.07F
OWENSBORO      SUNNY     51  26  37 S12       30.08F
HOPKINSVILLE   SUNNY     53  22  29 SE8       30.09F
BOWLING GREEN  SUNNY     53  26  35 S9        30.12F
GLASGOW        CLOUDY    51  23  33 S6        30.13S
$$

KYZ024-025-028>034-038-045-046-053-202200-
NORTH CENTRAL KENTUCKY

CITY           SKY/WX    TMP DP  RH WIND       PRES   REMARKS
LOUISVILLE/SDF CLOUDY    51  23  33 SE13      30.09F
LOUISVILLE/LOU CLOUDY    50  24  36 S10       30.10F
FORT KNOX      CLOUDY    49  24  38 S10       30.08F
$$

KYZ035>037-039>044-047>052-055>060-089>105-202200-
NORTHEAST KENTUCKY

CITY           SKY/WX    TMP DP  RH WIND       PRES   REMARKS
LEXINGTON      CLOUDY    48  26  42 S10       30.11F
COVINGTON      PTSUNNY   47  27  45 S10G22    30.07F
FRANKFORT      CLOUDY    48  23  37 S9        30.10F
$$

KYZ054-064>069-076>088-106>120-202200-
SOUTHEAST KENTUCKY

CITY           SKY/WX    TMP DP  RH WIND       PRES   REMARKS
JACKSON        CLOUDY    49  24  37 CALM      30.14F
LONDON         CLOUDY    50  15  24 S6        30.14F
SOMERSET       CLOUDY    50  21  32 CALM      30.15S
MIDDLESBORO    SUNNY     51  24  34 S8        30.16F
MONTICELLO     CLOUDY    51  25  36 VRB7      30.15F
$$




USA.gov is the U.S. government's official web portal to all federal, state and local government web resources and services.